Location: Oshawa
(43.9000°N, 78.8670°W)
Time: 14:46:59
(UTC-04:00)

Cosmos 839 Rocket - Visible Passes

Search period start: 28 June 2016 00:00
Search period end: 08 July 2016 00:00
Orbit: 958 x 2094 km, 65.9° (Epoch: 27 June)

Date Brightness Start Highest point End Pass type
(mag) Time Alt. Az. Time Alt. Az. Time Alt. Az.
28 Jun 7.3 04:19:57 10° SSE 04:28:51 25° E 04:37:30 10° NE visible
29 Jun 7.4 03:41:07 10° SE 03:47:33 16° E 03:53:52 10° ENE visible
30 Jun 6.5 04:53:02 10° S 05:04:21 47° ESE 05:15:11 10° NE visible
01 Jul 6.8 04:12:23 10° SSE 04:22:44 35° ESE 04:32:42 10° NE visible
02 Jul 7.1 03:32:26 10° SSE 03:41:15 24° E 03:49:49 10° NE visible
03 Jul 7.3 02:53:40 10° SE 02:59:58 16° E 03:06:08 10° ENE visible
03 Jul 6.0 04:46:37 10° S 04:58:33 63° ESE 05:09:48 10° NE visible
04 Jul 6.3 04:05:27 10° S 04:16:46 47° ESE 04:27:31 10° NE visible
05 Jul 6.7 03:24:50 10° SSE 03:35:08 34° ESE 03:45:01 10° NE visible
06 Jul 7.0 02:44:55 10° SE 02:53:40 24° E 03:02:08 10° NE visible
06 Jul 5.8 04:40:37 10° SSW 04:52:54 80° ESE 05:04:17 10° NE visible
07 Jul 7.2 02:06:13 10° SE 02:12:23 16° E 02:18:23 10° ENE visible
07 Jul 5.9 03:59:17 11° S 04:10:57 62° ESE 04:22:08 10° NE visible
